Regional Weather Roundup
Issued by NWS

Home | Current Version | Previous Version | Text Only | Print | Product List | Glossary Off
Versions: 1 2 3 4 5 6 7 8 9 10 11 12 13 14 15 16 17 18 19 20 21 22 23 24 25 26 27 28 29 30 31 32 33 34 35 36 37 38 39 40 41 42 43 44 45 46 47 48 49 50

000
ASUS43 KLSX 140010
RWRMO

WEATHER SUMMARY FOR MISSOURI
NATIONAL WEATHER SERVICE SPRINGFIELD MO
600 PM CST SAT FEB 13 2016

NOTE: "FAIR" INDICATES FEW OR NO CLOUDS BELOW 12,000 FEET WITH NO
       SIGNIFICANT WEATHER AND/OR OBSTRUCTIONS TO VISIBILITY.
       CURRENT SKY AND/OR WEATHER CONDITIONS ARE NOT AVAILABLE FOR
       CHILLICOTHE AND FARMINGTON.

MOZ001>031-035>038-043-044-053-054-140100-
...NORTHERN AND WESTERN MISSOURI...

CITY           SKY/WX    TMP DP  RH WIND       PRES   REMARKS
KANSAS CTY INT CLOUDY    20   3  48 E16       30.31F WCI   6
6HR MIN TEMP:  18; 6HR MAX TEMP:  20;

KANSAS C DTWN  CLOUDY    22   4  46 E13       30.32F WCI  10
6HR MIN TEMP:  20; 6HR MAX TEMP:  23;

LEE`S SUMMIT   CLOUDY    21   2  43 E16       30.32F WCI   7
6HR MIN TEMP:  19; 6HR MAX TEMP:  21;

ST JOSEPH      CLOUDY    20   1  43 E14       30.34F WCI   7
6HR MIN TEMP:  18; 6HR MAX TEMP:  20;

CHILLICOTHE      N/A     20   2  45 SE8       30.41F WCI  10
6HR MIN TEMP:  16; 6HR MAX TEMP:  20;

KIRKSVILLE     CLOUDY    18   3  52 E12       30.42F WCI   5
6HR MIN TEMP:  14; 6HR MAX TEMP:  18;


$$
MOZ066>068-077>081-088>096-101>105-140100-
...SOUTHWEST MISSOURI...

CITY           SKY/WX    TMP DP  RH WIND       PRES   REMARKS
SPRINGFIELD    CLOUDY    35  -2  20 SE12      30.27F WCI  27
6HR MIN TEMP:  31; 6HR MAX TEMP:  38;

JOPLIN         CLOUDY    39   8  27 E15       30.23F
6HR MIN TEMP:  35; 6HR MAX TEMP:  43;


$$
MOZ032>034-039>042-045>050-055>058-069>072-140100-
...CENTRAL MISSOURI...

CITY           SKY/WX    TMP DP  RH WIND       PRES   REMARKS
COLUMBIA       CLOUDY    20   2  45 E10       30.42F WCI   9
6HR MIN TEMP:  17; 6HR MAX TEMP:  20;

JEFFERSON CITY CLOUDY    21   1  41 E12       30.45F WCI   9
6HR MIN TEMP:  18; 6HR MAX TEMP:  21;

ROLLA          CLOUDY    21   2  43 E9        30.38F WCI  11
6HR MIN TEMP:  18; 6HR MAX TEMP:  21;

SEDALIA        CLOUDY    21   2  43 E15       30.38F WCI   8
6HR MIN TEMP:  19; 6HR MAX TEMP:  22;

WHITEMAN AFB   CLOUDY    21   1  40 E12       30.35F WCI  10
WARRENSBURG    CLOUDY    23   1  39 E10G17    30.36F WCI  12
OSAGE BEACH    CLOUDY    23   0  36 E9        30.38F WCI  13

$$
MOZ051-052-059>065-140100-
...EAST CENTRAL MISSOURI...

CITY           SKY/WX    TMP DP  RH WIND       PRES   REMARKS
ST LOUIS INTL  CLOUDY    23   0  36 E9        30.51F WCI  13
6HR MIN TEMP:  19; 6HR MAX TEMP:  24;

SPIRIT OF STL  CLOUDY    22   1  40 E3        30.50F
6HR MIN TEMP:  19; 6HR MAX TEMP:  22;

ST CHARLES     CLOUDY    21   3  45 E9        30.51F WCI  11
6HR MIN TEMP:  19; 6HR MAX TEMP:  23;


$$
MOZ072>076-082>087-097>100-106>115-140100-
...SOUTH CENTRAL AND SOUTHEAST MISSOURI...

CITY           SKY/WX    TMP DP  RH WIND       PRES   REMARKS
CAPE GIRARDEAU CLOUDY    26   4  38 NE8       30.51F WCI  18
6HR MIN TEMP:  24; 6HR MAX TEMP:  28;

FARMINGTON     CLOUDY    22   3  44 E7        30.47F WCI  13
6HR MIN TEMP:  19; 6HR MAX TEMP:  24;

POPLAR BLUFF   CLOUDY    27   6  41 NE10      30.49F WCI  17
6HR MIN TEMP:  24; 6HR MAX TEMP:  28;

WEST PLAINS    PTCLDY    28  -3  26 E10       30.38F WCI  19
6HR MIN TEMP:  28; 6HR MAX TEMP:  33;


$$



USA.gov is the U.S. government's official web portal to all federal, state and local government web resources and services.